Retour au catalogue

IRIDIUM 33 DEB

ActifPO
NORAD 38028·DEBRIS·🇺🇸 United States

Lancé Sep 14, 1997 depuis Baikonur Cosmodrome

Loading…

Prochains Passages (prochaines 24 heures)

TLE

FraisSource: Space-Track

Époque: Sep 14, 2026, 16:15 UTC

1 38028U 97051YQ  26257.67749869  .00000675  00000-0  17993-3 0  9991
2 38028  86.3206 240.2160 0024942 288.3233  71.5257 14.46873528694849

Suivez IRIDIUM 33 DEB en temps réel avec AllMySat

Download on the App Store